[[{"header":{"parameterUnit":"m.s-1","parameterCategory":2,"la1":30.2991,"la2":30.254,"lo1":-89.0895,"lo2":-89.0444,"dy":0.0017,"dx":0.0017,"nx":28,"ny":28,"refTime":"2025-08-08T21:00:00:Z","depth":"0","parameterNumber":2,"parameterNumberName":"U-component_of_CURRENTS"},"data":[0,0,0,0,0,0,0,0,0,0,0,0,0,0,0,0,0,0,0,0,0,0,0,0,0,0,0,0,0,0,0,0,0,0,0,0,0,0,0,0,0,0,0,0,0,0,0,0,0,0,0,0,0,0,0,0,0,0,-0.2566,-0.2566,0,-0.2588,-0.2588,-0.2588,-0.2554,-0.2553,-0.2552,-0.2551,-0.251,-0.251,-0.251,0,0,0,0,0,0,0,0,0,0,0,0,0,-0.2493,-0.2494,-0.2566,-0.2566,-0.2567,-0.2588,-0.2588,-0.2588,-0.2554,-0.2553,-0.2552,-0.2551,-0.251,-0.251,-0.251,0,0,0,0,0,0,0,0,0,0,0,0,0,-0.2518,-0.2495,-0.2566,-0.2554,-0.2554,-0.2588,-0.2588,-0.2588,-0.2554,-0.2553,-0.2551,-0.255,-0.251,-0.251,-0.251,-0.2536,0,0,-0.2509,-0.2509,0,0,0,0,0,0,0,0,-0.2517,-0.2521,-0.2555,-0.2555,-0.2555,-0.2569,-0.2548,-0.2569,-0.2555,-0.2551,-0.2551,-0.2549,-0.2527,-0.2525,-0.2529,-0.2534,-0.2533,-0.2509,-0.2509,-0.2508,-0.2508,0,0,0,0,0,0,0,-0.2515,-0.252,-0.2572,-0.2556,-0.2556,-0.2548,-0.255,-0.2551,-0.2543,-0.2551,-0.255,-0.2557,-0.2525,-0.253,-0.2528,-0.2532,-0.2509,-0.2508,-0.2508,-0.2508,-0.2562,-0.2564,0,0,0,0,0,0,-0.252,-0.2518,-0.2571,-0.2573,-0.2535,-0.2551,-0.2552,-0.2564,-0.2545,-0.2542,-0.2558,-0.2555,-0.2531,-0.2529,-0.2527,-0.2569,-0.2508,-0.2508,-0.2508,-0.2561,-0.2563,-0.2565,0,0,0,0,0,0,-0.2518,-0.2525,-0.257,-0.2548,-0.2553,-0.2554,-0.2566,-0.2565,-0.2564,-0.2551,-0.2546,-0.2558,-0.253,-0.2527,-0.2534,-0.2566,-0.2508,-0.2508,-0.2559,-0.2561,-0.2564,-0.2646,0,0,0,0,0,0,-0.2516,-0.2524,-0.2529,-0.2548,-0.2555,-0.2596,-0.2568,-0.2566,-0.2572,-0.2568,-0.2549,-0.2544,-0.2529,-0.2534,-0.2533,-0.2565,-0.2507,-0.2557,-0.256,-0.2563,-0.2641,-0.2651,-0.2659,0,0,0,0,0,-0.2514,-0.2529,-0.2529,-0.2535,-0.2563,-0.2598,-0.26,-0.2593,-0.2573,-0.2584,-0.2571,-0.2545,-0.2553,-0.2536,-0.2534,-0.2566,-0.2555,-0.2559,-0.2563,-0.2637,-0.2649,-0.2659,0,0,0,0,0,0,-0.2497,-0.2528,-0.2528,-0.2551,-0.2575,-0.2593,-0.2598,-0.2597,-0.2596,-0.2585,-0.2564,-0.256,-0.2579,-0.2563,-0.2544,-0.2592,-0.2551,-0.2555,-0.2609,-0.2619,-0.2628,-0.2633,-0.2507,0,0,0,0,0,-0.2499,-0.2514,-0.2548,-0.2563,-0.2577,-0.2588,-0.2597,-0.26,-0.2605,-0.2602,-0.2593,-0.2586,-0.2597,-0.2598,-0.2599,-0.2624,-0.2602,-0.2645,-0.2654,-0.2661,-0.2665,-0.2672,-0.2682,-0.2577,-0.2577,-0.2576,0,0,-0.2494,-0.2514,-0.2521,-0.256,-0.2572,-0.2611,-0.2589,-0.261,-0.2641,-0.2599,-0.2623,-0.2615,-0.261,-0.264,-0.2648,-0.2628,-0.2679,-0.2666,-0.2673,-0.2672,-0.2677,-0.2687,-0.2696,-0.2579,-0.2579,-0.2578,0,0,-0.2502,-0.2514,-0.2535,-0.2566,-0.2599,-0.2617,-0.2626,-0.2652,-0.2659,-0.2689,-0.2671,-0.2685,-0.2691,-0.2705,-0.2711,-0.2771,-0.2726,-0.2767,-0.2818,-0.2826,-0.2834,-0.2842,-0.282,-0.2825,-0.2773,-0.2773,-0.2774,0,-0.2495,-0.253,-0.2546,-0.2585,-0.2613,-0.2625,-0.2665,-0.2688,-0.2712,-0.2726,-0.2703,-0.2734,-0.2729,-0.2778,-0.2801,-0.2794,-0.2772,-0.2778,-0.2837,-0.2844,-0.285,-0.2826,-0.283,-0.2778,-0.2777,-0.2777,-0.2776,0,-0.2527,-0.2561,-0.2577,-0.2633,-0.2668,-0.2701,-0.2747,-0.2773,-0.2779,-0.2798,-0.2836,-0.2835,-0.2848,-0.2861,-0.2849,-0.2899,-0.2861,-0.2847,-0.2808,-0.2866,-0.2837,-0.2839,-0.2784,-0.2783,-0.2781,-0.278,0,0,-0.2492,-0.2582,-0.2587,-0.262,-0.2695,-0.2722,-0.279,-0.2848,-0.2875,-0.2902,-0.2934,-0.2975,-0.2957,-0.2963,-0.2955,-0.297,-0.2997,-0.2928,-0.2926,-0.2904,-0.2987,-0.2904,-0.2898,-0.2987,-0.2988,-0.2989,-0.2947,0,-0.2508,-0.2581,-0.2631,-0.27,-0.274,-0.2793,-0.2852,-0.2906,-0.2935,-0.2967,-0.299,-0.3008,-0.3003,-0.2998,-0.3022,-0.3,-0.3009,-0.3008,-0.2937,-0.2935,-0.2852,-0.2901,-0.2777,-0.2724,-0.2949,-0.295,-0.295,0,-0.2518,-0.2567,-0.2638,-0.273,-0.2752,-0.2798,-0.2876,-0.2929,-0.2996,-0.3015,-0.3052,-0.3053,-0.3092,-0.3063,-0.3075,-0.3069,-0.3037,-0.3019,-0.3016,-0.2911,-0.2857,-0.2705,-0.272,-0.2694,-0.2954,-0.2953,-0.2953,0,-0.2465,-0.2568,-0.2618,-0.2651,-0.2761,-0.2797,-0.285,-0.2931,-0.2972,-0.303,-0.3049,-0.3095,-0.3096,-0.3095,-0.3067,-0.3066,-0.3054,-0.3044,-0.2941,-0.2933,-0.28,-0.2779,-0.2778,-0.3047,-0.3047,-0.3047,-0.3047,0,-0.2457,-0.2493,-0.2591,-0.2616,-0.2668,-0.2757,-0.2812,-0.2871,-0.295,-0.2984,-0.3051,-0.3072,-0.3102,-0.31,-0.3076,-0.3012,-0.306,-0.2954,-0.2925,-0.2824,-0.2806,-0.2753,-0.2768,-0.3045,-0.3046,-0.3046,-0.3046,0,-0.2387,-0.2458,-0.2511,-0.2614,-0.2643,-0.267,-0.2778,-0.2811,-0.2901,-0.2944,-0.296,-0.3049,-0.3045,-0.3057,-0.3039,-0.3001,-0.2899,-0.2919,-0.2784,-0.2741,-0.2615,-0.2639,-0.2587,-0.2516,-0.2801,-0.2799,-0.2797,0,-0.2358,-0.2377,-0.2472,-0.249,-0.2532,-0.2593,-0.2632,-0.2754,-0.2794,-0.2917,-0.292,-0.2963,-0.2957,-0.292,-0.287,-0.2807,-0.28,-0.2651,-0.2638,-0.2596,-0.2603,-0.2615,-0.2561,-0.249,-0.2486,-0.2483,-0.248,0,-0.2283,-0.2311,-0.2348,-0.2388,-0.2425,-0.2477,-0.2543,-0.258,-0.271,-0.2758,-0.2806,-0.2817,-0.2806,-0.2705,-0.2643,-0.2589,-0.2576,-0.2576,-0.2575,-0.2398,-0.2369,-0.2288,-0.2522,-0.2449,-0.2452,-0.2454,-0.2456,-0.2457,-0.2198,-0.2198,-0.2236,-0.2261,-0.2301,-0.2329,-0.2328,-0.2412,-0.2458,-0.2501,-0.2607,-0.2588,-0.2555,-0.2456,-0.2407,-0.2283,-0.2353,-0.2213,-0.2255,-0.2279,-0.2188,-0.2343,-0.2216,-0.2218,-0.2219,-0.2221,-0.2222,0,-0.208,-0.2089,-0.2106,-0.2129,-0.2112,-0.2184,-0.2233,-0.2206,-0.22,-0.2284,-0.2295,-0.2295,-0.2186,-0.2178,-0.2084,-0.1995,-0.1952,-0.1952,-0.1952,-0.1917,-0.2076,-0.2039,-0.1816,-0.1816,-0.1816,-0.1816,-0.1816,-0.1816,-0.2017,-0.1981,-0.1992,-0.192,-0.1931,-0.1864,-0.186,-0.1842,-0.1869,-0.1862,-0.1905,-0.1988,-0.1997,-0.2084,-0.1951,-0.1857,-0.1818,-0.1753,-0.1798,-0.1932,-0.196,-0.1988,-0.1957,-0.1721,-0.1721,-0.1555,-0.1554,-0.1553]},{"header":{"parameterUnit":"m.s-1","parameterCategory":2,"la1":30.2991,"la2":30.254,"lo1":-89.0895,"lo2":-89.0444,"dy":0.0017,"dx":0.0017,"nx":28,"ny":28,"refTime":"2025-08-08T21:00:00:Z","depth":"0","parameterNumber":3,"parameterNumberName":"V-component_of_CURRENTS"},"data":[0,0,0,0,0,0,0,0,0,0,0,0,0,0,0,0,0,0,0,0,0,0,0,0,0,0,0,0,0,0,0,0,0,0,0,0,0,0,0,0,0,0,0,0,0,0,0,0,0,0,0,0,0,0,0,0,0,0,-0.0237,-0.0236,0,-0.0149,-0.0148,-0.0146,-0.0081,-0.008,-0.008,-0.008,0.0036,0.0039,0.0042,0,0,0,0,0,0,0,0,0,0,0,0,0,-0.03,-0.03,-0.0237,-0.0236,-0.0235,-0.0149,-0.0147,-0.0146,-0.0081,-0.008,-0.008,-0.0079,0.0036,0.0039,0.0042,0,0,0,0,0,0,0,0,0,0,0,0,0,-0.0247,-0.0299,-0.0237,-0.0193,-0.0188,-0.0149,-0.0147,-0.0146,-0.0081,-0.008,-0.008,-0.0079,0.0034,0.0038,0.0042,0.0053,0,0,0.0054,0.0056,0,0,0,0,0,0,0,0,-0.0251,-0.0245,-0.02,-0.0196,-0.0191,-0.0126,-0.0127,-0.0078,-0.0081,-0.0121,-0.008,-0.0079,-0.0017,-0.0009,0.0008,0.0058,0.0063,0.0055,0.0057,0.0059,0.006,0,0,0,0,0,0,0,-0.0254,-0.0248,-0.0201,-0.02,-0.0194,-0.0161,-0.0153,-0.0117,-0.0072,-0.0117,-0.0112,-0.0105,-0.0014,0.0004,0.0011,0.0065,0.0055,0.0058,0.0061,0.0062,0.0146,0.0146,0,0,0,0,0,0,-0.0271,-0.0252,-0.0204,-0.0198,-0.0221,-0.0161,-0.0152,-0.0147,-0.0073,-0.0062,-0.0105,-0.0102,-0.0003,0.0006,0.0015,0.0034,0.0059,0.0063,0.0065,0.0146,0.0146,0.0146,0,0,0,0,0,0,-0.0273,-0.0268,-0.0207,-0.0224,-0.0214,-0.0161,-0.0155,-0.0145,-0.0127,-0.0065,-0.0052,-0.0098,-0.0002,0.001,0.0047,0.0039,0.0064,0.0068,0.0147,0.0146,0.0146,0.007,0,0,0,0,0,0,-0.0275,-0.0269,-0.0274,-0.0225,-0.0214,-0.0194,-0.0156,-0.0144,-0.0124,-0.0119,-0.0054,-0.0043,-0.0001,0.0041,0.0051,0.0045,0.0071,0.0147,0.0147,0.0146,0.0073,0.0067,0.0062,0,0,0,0,0,-0.0278,-0.0291,-0.0274,-0.0268,-0.0221,-0.0195,-0.0186,-0.0144,-0.0125,-0.0124,-0.0076,-0.0045,0.0046,0.0044,0.0056,0.0051,0.0147,0.0147,0.0146,0.0075,0.0068,0.0063,0,0,0,0,0,0,-0.0322,-0.0284,-0.0265,-0.0266,-0.0236,-0.0184,-0.0181,-0.0152,-0.0113,-0.0107,-0.0046,-0.0031,-0.0002,0.0035,0.003,0.0075,0.0101,0.0103,0.0043,0.0037,0.0032,0.0017,0.0074,0,0,0,0,0,-0.0335,-0.0334,-0.0291,-0.0293,-0.0281,-0.0232,-0.0217,-0.019,-0.0148,-0.013,-0.0084,-0.0035,0.0006,0.0029,0.0068,0.0092,0.0138,0.0097,0.0092,0.0087,0.0083,0.0148,0.0149,0.0145,0.0145,0.0145,0,0,-0.0352,-0.0332,-0.0331,-0.0302,-0.0275,-0.0271,-0.0221,-0.0206,-0.0197,-0.0125,-0.0102,-0.0053,0.0007,0.0035,0.0051,0.0065,0.0112,0.0087,0.0082,0.0081,0.0148,0.0149,0.0149,0.0145,0.0145,0.0145,0,0,-0.0395,-0.037,-0.0386,-0.0367,-0.0336,-0.0304,-0.0304,-0.0256,-0.0229,-0.0202,-0.0146,-0.0101,-0.0045,0.0002,0.0032,0.0023,0.0081,0.0032,-0.0003,0.0059,0.006,0.0062,0.0118,0.0125,0.0032,0.0031,0.0031,0,-0.0419,-0.043,-0.0387,-0.0397,-0.0387,-0.0325,-0.0339,-0.0304,-0.025,-0.0226,-0.0207,-0.0107,-0.0059,-0.001,-0.0015,0.0011,0.0054,0.0012,0.0052,0.0055,0.0057,0.0115,0.0123,0.0028,0.0028,0.0029,0.0029,0,-0.0471,-0.0479,-0.0488,-0.0478,-0.0461,-0.0462,-0.0411,-0.0387,-0.0347,-0.0303,-0.0248,-0.0175,-0.0113,-0.0093,-0.0057,-0.0016,0.001,0.0035,0.0064,0.0053,0.0114,0.0125,0.0022,0.0024,0.0025,0.0026,0,0,-0.0524,-0.0526,-0.0528,-0.054,-0.0503,-0.0496,-0.0478,-0.0439,-0.0419,-0.0357,-0.0322,-0.0249,-0.0197,-0.016,-0.0101,-0.0049,0.0005,-0.0008,-0.0003,0.004,0.014,0.0189,0.0206,0.0036,0.0038,0.0039,0.0174,0,-0.0578,-0.0623,-0.06,-0.0632,-0.0648,-0.0588,-0.0575,-0.0527,-0.0467,-0.0416,-0.0325,-0.027,-0.0225,-0.0191,-0.0133,-0.0023,0.0029,-0.0035,0.0151,0.0157,0.0196,0.0218,0.0243,0.0369,0.0185,0.0186,0.0188,0,-0.0635,-0.0656,-0.0705,-0.0708,-0.0708,-0.0711,-0.0666,-0.0645,-0.0551,-0.0503,-0.0424,-0.0342,-0.0248,-0.0211,-0.0038,-0.008,0.0015,0.0098,0.0106,0.0185,0.0225,0.0353,0.0395,0.0541,0.0204,0.0203,0.0202,0,-0.0696,-0.0726,-0.077,-0.0772,-0.0763,-0.0765,-0.0748,-0.0673,-0.0649,-0.0549,-0.0509,-0.0383,-0.0307,-0.0177,-0.0003,-0.0018,0.0193,0.02,0.0333,0.0338,0.0413,0.0422,0.0614,0.0313,0.0313,0.0313,0.0312,0,-0.0761,-0.0793,-0.0804,-0.0829,-0.0867,-0.0829,-0.0836,-0.0793,-0.0722,-0.069,-0.056,-0.0492,-0.0295,-0.0144,-0.0007,0.0207,0.0198,0.0336,0.0381,0.0387,0.0392,0.0566,0.0612,0.0318,0.0317,0.0316,0.0315,0,-0.0823,-0.0832,-0.0884,-0.0897,-0.0903,-0.0926,-0.0912,-0.0905,-0.0826,-0.0775,-0.0744,-0.0559,-0.0352,-0.0146,0.0093,0.0214,0.05,0.0476,0.0468,0.051,0.0752,0.079,0.1025,0.1104,0.064,0.0642,0.0644,0,-0.0859,-0.0895,-0.0944,-0.0978,-0.0989,-0.1012,-0.1024,-0.0968,-0.0949,-0.081,-0.0786,-0.0571,-0.0401,-0.0021,0.0238,0.051,0.0609,0.068,0.0654,0.0783,0.086,0.0888,0.0938,0.0726,0.0728,0.073,0.0732,0,-0.0923,-0.094,-0.0982,-0.1058,-0.1093,-0.1124,-0.1129,-0.1132,-0.1047,-0.0973,-0.0826,-0.0675,-0.0289,0.0055,0.0416,0.0574,0.0786,0.0726,0.0875,0.0958,0.0989,0.108,0.0611,0.0748,0.0747,0.0746,0.0745,0.0744,-0.0958,-0.1006,-0.1063,-0.113,-0.1176,-0.1215,-0.1232,-0.1205,-0.1162,-0.1024,-0.0871,-0.061,-0.0117,0.041,0.0597,0.0991,0.0946,0.1095,0.1136,0.1157,0.1224,0.0786,0.0962,0.0962,0.0962,0.0961,0.0961,0,-0.0995,-0.105,-0.1127,-0.1203,-0.1261,-0.1265,-0.1283,-0.1262,-0.1202,-0.1031,-0.0852,-0.031,0.0177,0.062,0.1177,0.1386,0.142,0.1488,0.1535,0.157,0.1209,0.1203,0.1422,0.1422,0.1422,0.1422,0.1422,0.1422,-0.1016,-0.1096,-0.114,-0.1249,-0.13,-0.1343,-0.1349,-0.129,-0.117,-0.0873,-0.0568,-0.0315,0.032,0.1218,0.1728,0.1774,0.1928,0.192,0.2008,0.1754,0.172,0.1687,0.1696,0.2015,0.2016,0.2354,0.2357,0.236]}],[{"header":{"parameterUnit":"m.s-1","parameterCategory":2,"la1":30.2991,"la2":30.254,"lo1":-89.0895,"lo2":-89.0444,"dy":0.0017,"dx":0.0017,"nx":28,"ny":28,"refTime":"2025-08-08T21:00:00:Z","depth":"2","parameterNumber":2,"parameterNumberName":"U-component_of_CURRENTS"},"data":[0,0,0,0,0,0,0,0,0,0,0,0,0,0,0,0,0,0,0,0,0,0,0,0,0,0,0,0,0,0,0,0,0,0,0,0,0,0,0,0,0,0,0,0,0,0,0,0,0,0,0,0,0,0,0,0,0,0,-0.2248,-0.2249,0,-0.2272,-0.2272,-0.2272,-0.2248,-0.2247,-0.2247,-0.2246,-0.2219,-0.2219,-0.2219,0,0,0,0,0,0,0,0,0,0,0,0,0,-0.218,-0.2182,-0.2248,-0.2249,-0.2249,-0.2272,-0.2272,-0.2272,-0.2248,-0.2247,-0.2247,-0.2246,-0.2219,-0.2219,-0.2219,0,0,0,0,0,0,0,0,0,0,0,0,0,-0.2205,-0.2182,-0.2248,-0.2242,-0.2242,-0.2272,-0.2272,-0.2272,-0.2248,-0.2247,-0.2246,-0.2245,-0.2219,-0.2219,-0.2219,-0.2239,0,0,-0.2218,-0.2218,0,0,0,0,0,0,0,0,-0.2204,-0.2207,-0.2242,-0.2242,-0.2242,-0.2258,-0.2238,-0.2259,-0.2249,-0.2243,-0.2246,-0.2245,-0.223,-0.2229,-0.2232,-0.2238,-0.2236,-0.2218,-0.2218,-0.2218,-0.2218,0,0,0,0,0,0,0,-0.2202,-0.2206,-0.2255,-0.2243,-0.2243,-0.2237,-0.2239,-0.2242,-0.2239,-0.2244,-0.2243,-0.225,-0.2229,-0.2233,-0.2232,-0.2236,-0.2218,-0.2218,-0.2218,-0.2218,-0.2269,-0.2271,0,0,0,0,0,0,-0.2206,-0.2205,-0.2254,-0.2256,-0.2223,-0.224,-0.2242,-0.2252,-0.224,-0.2239,-0.225,-0.2248,-0.2233,-0.2232,-0.223,-0.2271,-0.2218,-0.2218,-0.2218,-0.2268,-0.227,-0.2271,0,0,0,0,0,0,-0.2204,-0.221,-0.2253,-0.2232,-0.2238,-0.2242,-0.2254,-0.2253,-0.2257,-0.2246,-0.2243,-0.2255,-0.2233,-0.2231,-0.224,-0.2268,-0.2218,-0.2218,-0.2266,-0.2269,-0.2271,-0.234,0,0,0,0,0,0,-0.2202,-0.2209,-0.2216,-0.2233,-0.2239,-0.2278,-0.2255,-0.2254,-0.2264,-0.2261,-0.2249,-0.2246,-0.2232,-0.2241,-0.224,-0.2267,-0.2218,-0.2265,-0.2267,-0.227,-0.2336,-0.2344,-0.2351,0,0,0,0,0,-0.22,-0.2215,-0.2216,-0.2222,-0.2249,-0.2279,-0.2282,-0.2279,-0.2265,-0.2276,-0.2268,-0.2246,-0.2257,-0.2242,-0.2241,-0.2269,-0.2263,-0.2267,-0.227,-0.2332,-0.2342,-0.2351,0,0,0,0,0,0,-0.2187,-0.2215,-0.2216,-0.2238,-0.2261,-0.2276,-0.2284,-0.2285,-0.2288,-0.2281,-0.2263,-0.226,-0.228,-0.2267,-0.225,-0.2292,-0.2258,-0.2261,-0.2306,-0.2315,-0.2323,-0.2325,-0.2218,0,0,0,0,0,-0.219,-0.2206,-0.2234,-0.225,-0.2263,-0.2275,-0.2285,-0.2289,-0.2296,-0.2296,-0.229,-0.2286,-0.2295,-0.2297,-0.2299,-0.2322,-0.2304,-0.234,-0.2348,-0.2354,-0.2357,-0.2361,-0.2369,-0.2282,-0.2282,-0.2282,0,0,-0.2188,-0.2205,-0.2213,-0.2248,-0.2261,-0.2294,-0.2277,-0.23,-0.2327,-0.2293,-0.2317,-0.2312,-0.2307,-0.2333,-0.2341,-0.2324,-0.237,-0.2358,-0.2364,-0.2363,-0.2365,-0.2374,-0.2381,-0.2284,-0.2284,-0.2283,0,0,-0.2197,-0.221,-0.223,-0.2257,-0.2288,-0.2304,-0.2314,-0.2338,-0.2347,-0.2375,-0.236,-0.2373,-0.2381,-0.239,-0.2394,-0.2447,-0.241,-0.2446,-0.2488,-0.2493,-0.25,-0.2506,-0.2494,-0.2498,-0.245,-0.2451,-0.2451,0,-0.2193,-0.2225,-0.2241,-0.2275,-0.2299,-0.2312,-0.2347,-0.2368,-0.2393,-0.2405,-0.239,-0.2417,-0.2412,-0.2451,-0.247,-0.2465,-0.2451,-0.2453,-0.2503,-0.2508,-0.2513,-0.2499,-0.2503,-0.2454,-0.2454,-0.2454,-0.2453,0,-0.2223,-0.2253,-0.2269,-0.2317,-0.2348,-0.2378,-0.2418,-0.2443,-0.2452,-0.2469,-0.2503,-0.2502,-0.2514,-0.2524,-0.2513,-0.2554,-0.2526,-0.2511,-0.2478,-0.2526,-0.2508,-0.2511,-0.246,-0.2458,-0.2457,-0.2456,0,0,-0.2196,-0.2275,-0.2278,-0.2306,-0.2372,-0.2396,-0.2455,-0.2504,-0.253,-0.2556,-0.2586,-0.2617,-0.2605,-0.2609,-0.2601,-0.2612,-0.2637,-0.2578,-0.2577,-0.2563,-0.2633,-0.2552,-0.2546,-0.2626,-0.2627,-0.2628,-0.2606,0,-0.2211,-0.2273,-0.2316,-0.2375,-0.2409,-0.2456,-0.2506,-0.2554,-0.2582,-0.2614,-0.2631,-0.2651,-0.2642,-0.2642,-0.2658,-0.2639,-0.2647,-0.2643,-0.2591,-0.2589,-0.2508,-0.2548,-0.2352,-0.2311,-0.2609,-0.2609,-0.2609,0,-0.2219,-0.2261,-0.2322,-0.24,-0.2419,-0.246,-0.2529,-0.2576,-0.2637,-0.2658,-0.2691,-0.2694,-0.2726,-0.2699,-0.2707,-0.2701,-0.2675,-0.2659,-0.2657,-0.2557,-0.2512,-0.2311,-0.2304,-0.2613,-0.2613,-0.2613,-0.2612,0,-0.2172,-0.226,-0.2303,-0.2331,-0.2426,-0.246,-0.2507,-0.258,-0.2617,-0.2676,-0.2697,-0.2735,-0.2739,-0.2735,-0.2708,-0.2706,-0.2696,-0.2686,-0.2591,-0.2584,-0.2394,-0.2369,-0.2687,-0.2687,-0.2687,-0.2687,-0.2687,0,-0.2164,-0.2194,-0.228,-0.2302,-0.2348,-0.2427,-0.2478,-0.2533,-0.2607,-0.2637,-0.2702,-0.2719,-0.2747,-0.2744,-0.272,-0.2658,-0.2705,-0.2601,-0.2577,-0.2413,-0.2391,-0.2633,-0.2627,-0.2686,-0.2686,-0.2687,-0.2687,0,-0.2101,-0.2164,-0.2208,-0.23,-0.2326,-0.2352,-0.2449,-0.2478,-0.2566,-0.2606,-0.2624,-0.2703,-0.27,-0.2711,-0.2694,-0.2654,-0.2615,-0.2577,-0.2376,-0.2329,-0.2497,-0.2495,-0.2477,-0.2474,-0.2472,-0.247,-0.2468,0,-0.2074,-0.209,-0.2174,-0.2189,-0.2227,-0.2284,-0.2316,-0.243,-0.2463,-0.2578,-0.2579,-0.2624,-0.261,-0.2576,-0.2521,-0.2464,-0.2538,-0.225,-0.2218,-0.2499,-0.2478,-0.248,-0.2481,-0.1993,-0.1988,-0.1983,-0.198,0,-0.2004,-0.2031,-0.2062,-0.2094,-0.2127,-0.217,-0.2229,-0.2257,-0.2376,-0.2413,-0.2449,-0.2456,-0.2448,-0.231,-0.2258,-0.2197,-0.2249,-0.2156,-0.2494,-0.2082,-0.2042,-0.2022,-0.2039,-0.194,-0.1944,-0.1946,-0.1949,-0.195,-0.1929,-0.1926,-0.1958,-0.1975,-0.201,-0.2026,-0.2015,-0.2084,-0.2112,-0.2135,-0.2237,-0.2185,-0.2186,-0.2009,-0.1919,-0.1857,-0.2008,-0.1913,-0.1927,-0.1945,-0.1899,-0.1857,-0.171,-0.1713,-0.1715,-0.1717,-0.1719,0,-0.182,-0.1824,-0.1834,-0.1847,-0.1824,-0.1892,-0.192,-0.1879,-0.1848,-0.1904,-0.1901,-0.1722,-0.1643,-0.1661,-0.151,-0.1485,-0.147,-0.1416,-0.1396,-0.1436,-0.1471,-0.1402,-0.108,-0.1079,-0.1077,-0.1075,0,0,-0.1761,-0.1722,-0.1724,-0.1644,-0.165,-0.1575,-0.1558,-0.1516,-0.1517,-0.1447,-0.1424,-0.1546,-0.1603,-0.134,-0.128,-0.1161,-0.1283,-0.1098,-0.1607,-0.1622,-0.1655,-0.1751,-0.1687,0,0,0,0,0]},{"header":{"parameterUnit":"m.s-1","parameterCategory":2,"la1":30.2991,"la2":30.254,"lo1":-89.0895,"lo2":-89.0444,"dy":0.0017,"dx":0.0017,"nx":28,"ny":28,"refTime":"2025-08-08T21:00:00:Z","depth":"2","parameterNumber":3,"parameterNumberName":"V-component_of_CURRENTS"},"data":[0,0,0,0,0,0,0,0,0,0,0,0,0,0,0,0,0,0,0,0,0,0,0,0,0,0,0,0,0,0,0,0,0,0,0,0,0,0,0,0,0,0,0,0,0,0,0,0,0,0,0,0,0,0,0,0,0,0,-0.0153,-0.0153,0,-0.0071,-0.007,-0.0069,-0.0013,-0.0013,-0.0012,-0.0012,0.0092,0.0094,0.0096,0,0,0,0,0,0,0,0,0,0,0,0,0,-0.0216,-0.0215,-0.0153,-0.0152,-0.0152,-0.0071,-0.007,-0.0069,-0.0013,-0.0013,-0.0012,-0.0012,0.0091,0.0094,0.0097,0,0,0,0,0,0,0,0,0,0,0,0,0,-0.0166,-0.0215,-0.0154,-0.0115,-0.0111,-0.0071,-0.007,-0.0068,-0.0013,-0.0013,-0.0012,-0.0012,0.009,0.0093,0.0097,0.0111,0,0,0.0108,0.011,0,0,0,0,0,0,0,0,-0.0169,-0.0163,-0.0121,-0.0117,-0.0113,-0.0053,-0.0054,-0.0008,-0.0013,-0.0049,-0.0012,-0.0011,0.0044,0.0052,0.0067,0.0116,0.012,0.0109,0.0111,0.0113,0.0114,0,0,0,0,0,0,0,-0.0172,-0.0166,-0.012,-0.0121,-0.0115,-0.0086,-0.0078,-0.0045,-0.0005,-0.0046,-0.0042,-0.0035,0.0047,0.0064,0.007,0.0122,0.0109,0.0112,0.0114,0.0116,0.02,0.02,0,0,0,0,0,0,-0.0188,-0.017,-0.0122,-0.0117,-0.0141,-0.0085,-0.0077,-0.0072,-0.0005,0.0005,-0.0035,-0.0032,0.0057,0.0066,0.0074,0.0096,0.0113,0.0116,0.0118,0.02,0.02,0.02,0,0,0,0,0,0,-0.0189,-0.0184,-0.0126,-0.0142,-0.0133,-0.0085,-0.0079,-0.007,-0.0054,0.0002,0.0013,-0.0028,0.0058,0.0069,0.0104,0.01,0.0118,0.0121,0.02,0.02,0.02,0.0139,0,0,0,0,0,0,-0.0192,-0.0185,-0.0189,-0.0144,-0.0133,-0.011,-0.0079,-0.0069,-0.0051,-0.0046,0.0012,0.0022,0.0059,0.0099,0.0108,0.0106,0.0124,0.02,0.02,0.02,0.0141,0.0137,0.0133,0,0,0,0,0,-0.0194,-0.0203,-0.019,-0.0184,-0.0139,-0.0111,-0.0103,-0.0066,-0.0051,-0.0049,-0.0006,0.002,0.0105,0.0102,0.0113,0.0111,0.02,0.02,0.02,0.0143,0.0138,0.0133,0,0,0,0,0,0,-0.0232,-0.0197,-0.0182,-0.0179,-0.0151,-0.0102,-0.0098,-0.0072,-0.0037,-0.0033,0.0022,0.0035,0.0064,0.0096,0.009,0.0136,0.0156,0.0158,0.0109,0.0105,0.0101,0.0086,0.0127,0,0,0,0,0,-0.0244,-0.0241,-0.0201,-0.02,-0.0189,-0.0145,-0.013,-0.0106,-0.0068,-0.0052,-0.001,0.0034,0.0072,0.0094,0.0131,0.0156,0.0194,0.0163,0.0159,0.0155,0.0151,0.0208,0.0209,0.02,0.02,0.02,0,0,-0.0259,-0.024,-0.0238,-0.0209,-0.0184,-0.0176,-0.0135,-0.0119,-0.0109,-0.0046,-0.0023,0.0021,0.0076,0.0105,0.0121,0.0132,0.0178,0.0155,0.0152,0.0149,0.0208,0.0209,0.021,0.02,0.02,0.02,0,0,-0.0293,-0.0271,-0.0283,-0.0263,-0.0234,-0.0204,-0.0204,-0.0159,-0.0135,-0.0106,-0.0058,-0.0016,0.0037,0.0081,0.0109,0.0107,0.0154,0.0115,0.0087,0.0142,0.0143,0.0145,0.019,0.0196,0.0115,0.0115,0.0115,0,-0.0314,-0.0321,-0.0282,-0.0287,-0.0278,-0.0223,-0.0232,-0.0198,-0.0147,-0.0127,-0.0109,-0.0017,0.0027,0.0075,0.0074,0.0098,0.0133,0.0097,0.0136,0.0139,0.0141,0.0188,0.0195,0.0112,0.0113,0.0113,0.0113,0,-0.0353,-0.036,-0.0365,-0.0353,-0.0336,-0.0335,-0.0287,-0.0265,-0.0229,-0.019,-0.0138,-0.007,-0.0014,0.0007,0.004,0.008,0.01,0.0122,0.0144,0.0138,0.0188,0.0197,0.0108,0.0109,0.011,0.0111,0,0,-0.0398,-0.0396,-0.0398,-0.0409,-0.0373,-0.0365,-0.0345,-0.0308,-0.0293,-0.0232,-0.0203,-0.0129,-0.0084,-0.0049,0.0005,0.0054,0.0102,0.0088,0.0092,0.0126,0.0218,0.0248,0.0261,0.0131,0.0132,0.0133,0.0243,0,-0.0443,-0.0479,-0.0456,-0.0484,-0.0497,-0.0443,-0.043,-0.0385,-0.0333,-0.0289,-0.0202,-0.0155,-0.0106,-0.0079,-0.0022,0.0074,0.0123,0.0069,0.0224,0.0229,0.0252,0.0272,0.0234,0.033,0.0252,0.0254,0.0255,0,-0.0489,-0.0508,-0.0549,-0.0555,-0.0554,-0.0556,-0.0521,-0.05,-0.0416,-0.0374,-0.0301,-0.0227,-0.0138,-0.0101,0.0058,0.0021,0.0107,0.0181,0.0188,0.0243,0.0276,0.0326,0.035,0.027,0.0269,0.0268,0.0267,0,-0.0547,-0.0572,-0.0611,-0.0612,-0.0605,-0.0608,-0.0595,-0.0529,-0.0511,-0.0422,-0.0391,-0.0272,-0.0208,-0.0083,0.0076,0.0067,0.0251,0.0263,0.0371,0.0374,0.0387,0.0389,0.0367,0.0366,0.0366,0.0366,0.0366,0,-0.0604,-0.0634,-0.0645,-0.0668,-0.0708,-0.0672,-0.0686,-0.0648,-0.0589,-0.0566,-0.0443,-0.0387,-0.0201,-0.0067,0.0066,0.0253,0.025,0.0372,0.041,0.0364,0.0363,0.0345,0.0342,0.037,0.0369,0.0368,0.0368,0,-0.0661,-0.0668,-0.0719,-0.0734,-0.0741,-0.0767,-0.0762,-0.0761,-0.0694,-0.0657,-0.0631,-0.0466,-0.0284,-0.0091,0.0127,0.0242,0.0415,0.0477,0.0409,0.0436,0.05,0.0491,0.0607,0.0609,0.0611,0.0613,0.0614,0,-0.0695,-0.0728,-0.0778,-0.0813,-0.0825,-0.0854,-0.0869,-0.0823,-0.0812,-0.07,-0.0683,-0.0499,-0.0353,-0.0013,0.0222,0.0471,0.0471,0.0571,0.0551,0.0502,0.0527,0.0516,0.0505,0.0542,0.0543,0.0543,0.0544,0,-0.0755,-0.0773,-0.0814,-0.0891,-0.0929,-0.0965,-0.0977,-0.0986,-0.0917,-0.0859,-0.074,-0.0612,-0.0279,0.0002,0.0325,0.0463,0.0529,0.0588,0.0574,0.0483,0.0449,0.047,0.0461,0.0548,0.0547,0.0547,0.0547,0.0547,-0.0792,-0.0839,-0.0895,-0.0963,-0.1012,-0.1056,-0.1077,-0.106,-0.1031,-0.092,-0.0795,-0.0576,-0.0303,0.0162,0.0389,0.0599,0.0599,0.0647,0.0642,0.0637,0.0606,0.0577,0.0693,0.0694,0.0694,0.0694,0.0695,0,-0.0833,-0.0884,-0.096,-0.1036,-0.1096,-0.1104,-0.113,-0.1113,-0.1068,-0.0932,-0.0785,-0.0478,-0.0156,0.013,0.0467,0.0667,0.0643,0.0692,0.062,0.0615,0.0611,0.0575,0.0656,0.0656,0.0657,0.0657,0,0,-0.0855,-0.0932,-0.0973,-0.1081,-0.1135,-0.1183,-0.1193,-0.1141,-0.1041,-0.0893,-0.0727,-0.0496,-0.0147,0.0079,0.0331,0.0505,0.0506,0.0518,0.0529,0.0409,0.0403,0.0567,0.0505,0,0,0,0,0]}],[{"header":{"parameterUnit":"m.s-1","parameterCategory":2,"la1":30.2991,"la2":30.254,"lo1":-89.0895,"lo2":-89.0444,"dy":0.0017,"dx":0.0017,"nx":28,"ny":28,"refTime":"2025-08-08T21:00:00:Z","depth":"4","parameterNumber":2,"parameterNumberName":"U-component_of_CURRENTS"},"data":[0,0,0,0,0,0,0,0,0,0,0,0,0,0,0,0,0,0,0,0,0,0,0,0,0,0,0,0,0,0,0,0,0,0,0,0,0,0,0,0,0,0,0,0,0,0,0,0,0,0,0,0,0,0,0,0,0,0,-0.1593,-0.1594,0,-0.165,-0.1651,-0.1651,-0.1682,-0.1682,-0.1683,-0.1683,-0.1726,-0.1727,-0.1728,0,0,0,0,0,0,0,0,0,0,0,0,0,-0.1505,-0.1507,-0.1593,-0.1594,-0.1595,-0.165,-0.1651,-0.1651,-0.1682,-0.1682,-0.1683,-0.1683,-0.1726,-0.1727,-0.1728,0,0,0,0,0,0,0,0,0,0,0,0,0,-0.1549,-0.1507,-0.1593,-0.1618,-0.1621,-0.165,-0.1651,-0.1652,-0.1682,-0.1682,-0.1683,-0.1683,-0.1725,-0.1727,-0.1728,-0.1729,0,0,-0.1732,-0.1733,0,0,0,0,0,0,0,0,-0.1547,-0.1552,-0.1614,-0.1617,-0.162,-0.1661,-0.1636,-0.1677,-0.1682,-0.1657,-0.1683,-0.1683,-0.1704,-0.1707,-0.1714,-0.1731,-0.1733,-0.1732,-0.1733,-0.1734,-0.1734,0,0,0,0,0,0,0,-0.1544,-0.155,-0.1614,-0.1615,-0.1619,-0.1625,-0.1632,-0.1644,-0.1676,-0.1659,-0.1662,-0.1671,-0.1705,-0.1713,-0.1716,-0.1734,-0.1732,-0.1733,-0.1734,-0.1735,-0.1823,-0.1824,0,0,0,0,0,0,-0.1541,-0.1547,-0.1612,-0.1616,-0.1586,-0.1627,-0.1634,-0.1646,-0.1676,-0.1682,-0.1671,-0.1673,-0.1711,-0.1714,-0.1717,-0.1787,-0.1734,-0.1735,-0.1736,-0.1821,-0.1823,-0.1824,0,0,0,0,0,0,-0.1538,-0.1546,-0.161,-0.1584,-0.1593,-0.1628,-0.1641,-0.1647,-0.1682,-0.1686,-0.1691,-0.1703,-0.1711,-0.1715,-0.1755,-0.1787,-0.1736,-0.1737,-0.1819,-0.1822,-0.1824,-0.1885,0,0,0,0,0,0,-0.1536,-0.1545,-0.1566,-0.1584,-0.1594,-0.1647,-0.1641,-0.1648,-0.1686,-0.169,-0.1715,-0.1718,-0.1712,-0.1753,-0.1756,-0.1788,-0.1738,-0.1817,-0.182,-0.1823,-0.1881,-0.1889,-0.1896,0,0,0,0,0,-0.1532,-0.1556,-0.1567,-0.1575,-0.1618,-0.1649,-0.1655,-0.1679,-0.1688,-0.1711,-0.1729,-0.1718,-0.1773,-0.1755,-0.1759,-0.1791,-0.1816,-0.1819,-0.1823,-0.1877,-0.1887,-0.1895,0,0,0,0,0,0,-0.1531,-0.1562,-0.1574,-0.1607,-0.1636,-0.1655,-0.1682,-0.1696,-0.1729,-0.1739,-0.1738,-0.1743,-0.1788,-0.1783,-0.1764,-0.1825,-0.1793,-0.1797,-0.1833,-0.1842,-0.1849,-0.1846,-0.1739,0,0,0,0,0,-0.1539,-0.1566,-0.1594,-0.1624,-0.1641,-0.1667,-0.1688,-0.1706,-0.173,-0.1746,-0.1764,-0.1782,-0.18,-0.1817,-0.183,-0.1866,-0.185,-0.1889,-0.1897,-0.1903,-0.1903,-0.1907,-0.1914,-0.1836,-0.1836,-0.1836,0,0,-0.1548,-0.1569,-0.1586,-0.1627,-0.165,-0.1683,-0.1681,-0.1723,-0.1756,-0.1745,-0.1802,-0.1811,-0.1816,-0.1855,-0.1875,-0.1859,-0.1919,-0.1907,-0.1913,-0.1909,-0.1911,-0.1919,-0.1925,-0.1838,-0.1837,-0.1837,0,0,-0.1568,-0.1598,-0.1625,-0.1654,-0.1698,-0.1714,-0.1733,-0.1771,-0.1798,-0.1847,-0.1846,-0.1876,-0.1911,-0.1918,-0.1924,-0.1981,-0.1957,-0.1992,-0.2029,-0.2033,-0.2039,-0.2045,-0.2038,-0.2042,-0.1996,-0.1997,-0.1997,0,-0.158,-0.1615,-0.1639,-0.1673,-0.1702,-0.1732,-0.1769,-0.18,-0.1849,-0.1871,-0.1876,-0.193,-0.1938,-0.1974,-0.1996,-0.1998,-0.1992,-0.1994,-0.2042,-0.2047,-0.2051,-0.2043,-0.2046,-0.2,-0.2,-0.1999,-0.1999,0,-0.161,-0.1652,-0.1673,-0.1724,-0.1759,-0.1798,-0.1839,-0.1882,-0.1916,-0.194,-0.1996,-0.2007,-0.2034,-0.2048,-0.2041,-0.2081,-0.2064,-0.2049,-0.2016,-0.2062,-0.2051,-0.2054,-0.2005,-0.2004,-0.2003,-0.2002,0,0,-0.1596,-0.1678,-0.1688,-0.172,-0.179,-0.1816,-0.1882,-0.1936,-0.1975,-0.2024,-0.2067,-0.2107,-0.2112,-0.2119,-0.2118,-0.2128,-0.2156,-0.2108,-0.2107,-0.2096,-0.2161,-0.2019,-0.2008,-0.2151,-0.2151,-0.2152,-0.2142,0,-0.1613,-0.1677,-0.172,-0.1787,-0.1821,-0.1876,-0.193,-0.1986,-0.2031,-0.2081,-0.2105,-0.2145,-0.2139,-0.2156,-0.2168,-0.216,-0.2166,-0.2159,-0.2122,-0.2121,-0.1984,-0.2007,-0.2155,-0.2144,-0.2144,-0.2145,-0.2145,0,-0.1619,-0.1663,-0.1731,-0.1813,-0.1835,-0.1885,-0.1967,-0.2019,-0.2092,-0.2127,-0.2172,-0.2189,-0.2225,-0.2206,-0.2218,-0.2216,-0.2195,-0.2182,-0.2181,-0.2026,-0.1983,-0.2088,-0.2149,-0.2149,-0.2149,-0.2148,-0.2148,0,-0.1571,-0.1665,-0.1719,-0.1749,-0.1848,-0.1897,-0.1953,-0.2035,-0.2075,-0.2157,-0.2187,-0.2232,-0.2251,-0.2249,-0.2228,-0.2231,-0.222,-0.2214,-0.2066,-0.2056,-0.2161,-0.2155,-0.2211,-0.2211,-0.2211,-0.2211,-0.2211,0,-0.1551,-0.1596,-0.1706,-0.1733,-0.1796,-0.1878,-0.1948,-0.201,-0.2092,-0.2122,-0.2203,-0.2214,-0.2263,-0.2261,-0.2241,-0.215,-0.2228,-0.2067,-0.2041,-0.2188,-0.2186,-0.2163,-0.2157,-0.2211,-0.2211,-0.2211,-0.2211,0,-0.1482,-0.156,-0.1622,-0.1737,-0.1775,-0.1818,-0.1934,-0.1967,-0.2068,-0.2108,-0.2134,-0.2209,-0.2202,-0.2222,-0.221,-0.2141,-0.2086,-0.2033,-0.2186,-0.2169,-0.1922,-0.192,-0.1872,-0.1867,-0.1862,-0.1859,-0.1856,0,-0.145,-0.1477,-0.1601,-0.1632,-0.169,-0.1771,-0.1813,-0.1934,-0.196,-0.2072,-0.2062,-0.2112,-0.2138,-0.2004,-0.2051,-0.1999,-0.1972,-0.1937,-0.1933,-0.1906,-0.1886,-0.1891,-0.1895,-0.1849,-0.1848,-0.1846,-0.1845,0,-0.1374,-0.1433,-0.148,-0.1543,-0.1601,-0.1653,-0.1725,-0.1733,-0.1847,-0.196,-0.1928,-0.1921,-0.1907,-0.1895,-0.1864,-0.1829,-0.196,-0.1891,-0.19,-0.1896,-0.1877,-0.1863,-0.1872,-0.183,-0.1832,-0.1834,-0.1835,0,-0.1313,-0.1323,-0.1387,-0.1426,-0.1492,-0.15,-0.1565,-0.1584,-0.1629,-0.1754,-0.1734,-0.1792,-0.1871,-0.1804,-0.1776,-0.1731,-0.171,-0.1655,-0.1676,-0.1693,-0.1639,-0.159,-0.1424,0,0,0,0,0,-0.1237,-0.1229,-0.1258,-0.1293,-0.1352,-0.1385,-0.1478,-0.1544,-0.1658,-0.1581,-0.1653,-0.163,-0.1599,-0.1636,-0.1552,-0.1704,-0.1723,-0.16,-0.1672,-0.1746,-0.1763,-0.1717,0,0,0,0,0,0,-0.1185,-0.1209,-0.1211,-0.1164,-0.1158,-0.1204,-0.1256,-0.1342,-0.1311,-0.1435,-0.1421,-0.1521,-0.1512,-0.1609,-0.1511,-0.1522,-0.1531,-0.1649,-0.1644,-0.1736,-0.1752,-0.1766,-0.1724,0,0,0,0,0]},{"header":{"parameterUnit":"m.s-1","parameterCategory":2,"la1":30.2991,"la2":30.254,"lo1":-89.0895,"lo2":-89.0444,"dy":0.0017,"dx":0.0017,"nx":28,"ny":28,"refTime":"2025-08-08T21:00:00:Z","depth":"4","parameterNumber":3,"parameterNumberName":"V-component_of_CURRENTS"},"data":[0,0,0,0,0,0,0,0,0,0,0,0,0,0,0,0,0,0,0,0,0,0,0,0,0,0,0,0,0,0,0,0,0,0,0,0,0,0,0,0,0,0,0,0,0,0,0,0,0,0,0,0,0,0,0,0,0,0,-0.0095,-0.0095,0,-0.0036,-0.0035,-0.0034,0.0004,0.0004,0.0004,0.0004,0.0084,0.0086,0.0088,0,0,0,0,0,0,0,0,0,0,0,0,0,-0.014,-0.0139,-0.0095,-0.0095,-0.0094,-0.0036,-0.0035,-0.0034,0.0004,0.0004,0.0004,0.0004,0.0084,0.0086,0.0089,0,0,0,0,0,0,0,0,0,0,0,0,0,-0.0104,-0.0139,-0.0095,-0.0069,-0.0066,-0.0036,-0.0035,-0.0034,0.0004,0.0004,0.0004,0.0004,0.0083,0.0086,0.0089,0.0103,0,0,0.0098,0.0099,0,0,0,0,0,0,0,0,-0.0106,-0.0102,-0.0073,-0.0071,-0.0067,-0.0024,-0.0021,0.0013,0.0004,-0.0022,0.0004,0.0004,0.0049,0.0055,0.0067,0.0107,0.0111,0.0098,0.01,0.0102,0.0102,0,0,0,0,0,0,0,-0.0108,-0.0104,-0.0071,-0.0073,-0.0069,-0.0047,-0.0042,-0.0014,0.0013,-0.0019,-0.0017,-0.0012,0.0051,0.0064,0.0069,0.0112,0.0098,0.0101,0.0103,0.0104,0.0179,0.0179,0,0,0,0,0,0,-0.012,-0.0107,-0.0073,-0.0069,-0.0087,-0.0047,-0.0041,-0.0037,0.0012,0.002,-0.0012,-0.001,0.0059,0.0066,0.0072,0.0095,0.0102,0.0104,0.0106,0.0178,0.0179,0.0179,0,0,0,0,0,0,-0.0121,-0.0117,-0.0075,-0.0087,-0.008,-0.0047,-0.0043,-0.0036,-0.0025,0.0018,0.0026,-0.0007,0.0059,0.0068,0.0098,0.0098,0.0106,0.0108,0.0178,0.0179,0.0179,0.0139,0,0,0,0,0,0,-0.0122,-0.0118,-0.0122,-0.0088,-0.008,-0.0062,-0.0043,-0.0035,-0.0022,-0.0019,0.0024,0.0032,0.006,0.0093,0.0101,0.0102,0.0111,0.0178,0.0178,0.0179,0.014,0.0137,0.0136,0,0,0,0,0,-0.0124,-0.0129,-0.0122,-0.0118,-0.0085,-0.0062,-0.0056,-0.0031,-0.0023,-0.0019,0.0013,0.0031,0.0101,0.0096,0.0105,0.0107,0.0178,0.0178,0.0179,0.0141,0.0138,0.0136,0,0,0,0,0,0,-0.0149,-0.0125,-0.0116,-0.0114,-0.0093,-0.0056,-0.0053,-0.0035,-0.0008,-0.0006,0.0034,0.0044,0.007,0.0095,0.0088,0.013,0.0142,0.0144,0.011,0.0108,0.0106,0.0091,0.0113,0,0,0,0,0,-0.0158,-0.0157,-0.0128,-0.0127,-0.0119,-0.0088,-0.0077,-0.0059,-0.003,-0.0018,0.0013,0.0048,0.0079,0.0097,0.0126,0.015,0.0176,0.0158,0.0155,0.0153,0.0148,0.0194,0.0195,0.018,0.018,0.018,0,0,-0.0168,-0.0155,-0.0155,-0.0133,-0.0115,-0.0109,-0.008,-0.0068,-0.0059,-0.0014,0.0006,0.004,0.0083,0.0109,0.0123,0.013,0.017,0.0154,0.0152,0.0147,0.0194,0.0196,0.0197,0.018,0.018,0.018,0,0,-0.019,-0.0177,-0.0184,-0.017,-0.0149,-0.0128,-0.0127,-0.0093,-0.0076,-0.0052,-0.0017,0.0018,0.0062,0.0097,0.0119,0.0124,0.0156,0.0132,0.0112,0.0157,0.0158,0.016,0.0189,0.0193,0.0133,0.0133,0.0133,0,-0.0205,-0.021,-0.0182,-0.0184,-0.0179,-0.014,-0.0147,-0.012,-0.0081,-0.0067,-0.0053,0.002,0.0056,0.0096,0.0099,0.0119,0.0143,0.0117,0.0154,0.0156,0.0158,0.0187,0.0193,0.0131,0.0131,0.0131,0.0132,0,-0.0227,-0.0235,-0.0237,-0.0229,-0.0217,-0.0216,-0.018,-0.0164,-0.014,-0.011,-0.007,-0.0013,0.0029,0.005,0.0077,0.0112,0.0123,0.0143,0.0157,0.0157,0.0188,0.0194,0.0128,0.0129,0.013,0.013,0,0,-0.0255,-0.0256,-0.0259,-0.0271,-0.0244,-0.024,-0.0223,-0.0197,-0.0191,-0.0139,-0.0122,-0.0054,-0.0022,0.0006,0.0051,0.0094,0.0133,0.0121,0.0124,0.0143,0.0221,0.0205,0.0211,0.016,0.0161,0.0162,0.0233,0,-0.0286,-0.0312,-0.0297,-0.0321,-0.0332,-0.0297,-0.0288,-0.0257,-0.0219,-0.019,-0.0119,-0.0085,-0.0038,-0.0019,0.0034,0.011,0.0149,0.0111,0.0223,0.0226,0.0208,0.0218,0.0165,0.0238,0.0239,0.024,0.0241,0,-0.0313,-0.033,-0.0364,-0.0379,-0.038,-0.0386,-0.037,-0.0356,-0.0296,-0.0266,-0.0209,-0.0151,-0.0076,-0.0041,0.0091,0.0064,0.0133,0.0193,0.0198,0.0201,0.0223,0.0241,0.0253,0.0252,0.0252,0.0251,0.025,0,-0.0353,-0.0378,-0.0413,-0.0417,-0.042,-0.043,-0.0427,-0.0383,-0.0376,-0.0313,-0.0296,-0.0195,-0.0148,-0.004,0.0091,0.0091,0.0231,0.0249,0.0299,0.0299,0.0308,0.0306,0.0332,0.0332,0.0332,0.0332,0.0332,0,-0.0388,-0.0419,-0.0442,-0.0462,-0.0506,-0.0484,-0.051,-0.0486,-0.045,-0.0441,-0.0343,-0.0307,-0.0145,-0.004,0.0075,0.0207,0.0223,0.0294,0.0318,0.0289,0.0284,0.0313,0.031,0.0335,0.0334,0.0333,0.0333,0,-0.0423,-0.0437,-0.0487,-0.0515,-0.053,-0.056,-0.0578,-0.0586,-0.0544,-0.0527,-0.0509,-0.0386,-0.0246,-0.0085,0.0095,0.0177,0.0309,0.0349,0.0296,0.0316,0.0348,0.0342,0.0407,0.0407,0.0407,0.0408,0.0408,0,-0.0441,-0.047,-0.0536,-0.0574,-0.0594,-0.0635,-0.0659,-0.0638,-0.0637,-0.0571,-0.0561,-0.0431,-0.0331,-0.0087,0.0076,0.029,0.0319,0.0375,0.0371,0.034,0.0357,0.0351,0.0345,0.0408,0.0408,0.0408,0.0408,0,-0.0476,-0.0505,-0.0545,-0.0628,-0.0676,-0.0722,-0.0749,-0.0757,-0.0718,-0.0688,-0.059,-0.0451,-0.0296,-0.0095,0.0071,0.0224,0.0335,0.0376,0.0377,0.0374,0.0341,0.0357,0.0351,0.0408,0.0408,0.0408,0.0408,0,-0.0501,-0.0542,-0.0602,-0.0669,-0.0737,-0.0781,-0.0794,-0.0776,-0.0765,-0.068,-0.0651,-0.0467,-0.0356,-0.0131,0.0023,0.0174,0.0209,0.0246,0.0255,0.0256,0.0193,0.0128,0.0149,0,0,0,0,0,-0.0518,-0.0564,-0.0636,-0.0708,-0.0774,-0.0808,-0.0838,-0.0834,-0.0801,-0.0738,-0.0689,-0.0536,-0.0292,-0.0182,-0.0034,0.0013,0.0222,0.0188,0.0266,0.041,0.0409,0.036,0,0,0,0,0,0,-0.053,-0.0599,-0.0636,-0.0721,-0.0773,-0.0835,-0.0855,-0.0835,-0.0787,-0.0734,-0.0598,-0.0517,-0.0274,-0.0372,-0.0034,0.0011,0.0075,0.0309,0.0312,0.041,0.041,0.0409,0.0358,0,0,0,0,0]}]]